EUTELSAT 7 WEST A

Last updated on Thu Nov 21 2024 00:02:41 GMT+0000 (Coordinated Universal Time)

1 37816U 11051A 24325.32995729 -.00000059 00000+0 00000+0 0 9998 2 37816 0.0648 4.3982 0007036 218.2048 308.7331 1.00271820 48145
UTC large
Height (km)
Speed (km/s)
/
Latitude / Longitude
Inclination (degrees)
Orbital Period (minutes)
Azimuth
Elevation
Range (km)
Doppler Factor

Next 0 passes for location: London (51.5072 / 0.1276)

Sorry there are no passes over London.